Location: Amsterdam
(30.7274°N, 84.4357°W)
Time: 21:15:15
(UTC+00:00)

Injun/Solrad 3 - Pass Details

Date: 20 February 2026
Orbit: 872 x 984 km, 66.8° (Epoch: 6 March)

Event Time Altitude Azimuth Distance (km) Brightness Sun altitude
Rises 23:51:48 0° 356° (N) 3,589 10.9 -5.5°
Reaches altitude 10° 23:56:07 10° 25° (NNE) 2,669 10.0 -6.4°
Maximum altitude 23:58:42 13° 50° (NE) 2,493 9.6 -7.0°
Drops below altitude 10° 00:01:18 10° 74° (ENE) 2,695 9.6 -7.5°
Enters shadow 00:01:54 - 79° (E) 2,791 9.7 -7.6°
Sets 00:05:40 0° 102° (ESE) 3,659 - -8.4°
